Location: The Saddle
(36.8333°N, 80.3417°W)
Time: 05:59:32
(UTC-04:00)

Tiros 1 - Pass Details

Date: 24 January 2022
Orbit: 630 x 663 km, 48.4° (Epoch: 29 May)

Event Time Altitude Azimuth Distance (km) Brightness Sun altitude
Exits shadow 05:04:06 49° 75° (ENE) 833 7.9 -29.0°
Drops below altitude 10° 05:07:50 10° 111° (ESE) 2,030 10.6 -28.2°
Sets 05:10:11 0° 115° (ESE) 2,931 11.6 -27.7°
